Regional Weather Roundup
Issued by NWS

Home | Current Version | Previous Version | Graphics & Text | Print | Product List | Glossary On
Versions: 1 2 3 4 5 6 7 8 9 10 11 12 13 14 15 16 17 18 19 20 21 22 23 24 25 26 27 28 29 30 31 32 33 34 35 36 37 38 39 40 41 42 43 44 45 46 47 48 49 50
000
ASUS43 KMKX 230121
RWRWI

WISCONSIN REGIONAL WEATHER ROUNDUP
NATIONAL WEATHER SERVICE MILWAUKEE/SULLIVAN WI
800 PM CDT SAT APR 22 2017

NOTE: "FAIR" INDICATES FEW OR NO CLOUDS BELOW 12,000 FEET WITH NO
SIGNIFICANT WEATHER AND/OR OBSTRUCTIONS TO VISIBILITY.

WIZ001-002-006>008-014>016-023>028-230200-
NORTHWEST WISCONSIN

CITY           SKY/WX    TMP DP  RH WIND       PRES   REMARKS
SUPERIOR ARPT  CLEAR     63  35  35 W12       30.02F
ASHLAND        PTCLDY    61  34  36 SW9       30.03F
HAYWARD        CLEAR     62  32  32 SW6       30.06F
SIREN          CLEAR     62  31  32 W7        30.08S
CUMBERLAND     CLEAR     59  32  36 W9        30.09S
RICE LAKE      CLEAR     63  32  31 SW7       30.10F
CHETEK         CLEAR     60  33  35 W3        30.09F
LADYSMITH      CLEAR     60  32  34 SW7       30.10F
EAU CLAIRE     CLEAR     60  33  36 SW7       30.09F
MENOMONIE      CLEAR     61  33  34 S6        30.10F
NEW RICHMOND   CLEAR     59  32  36 W5        30.11S
OSCEOLA        CLEAR     60  36  40 W7        30.12F
$$

WIZ003>005-009-010-017-018-230200-
NORTH CENTRAL WISCONSIN

CITY           SKY/WX    TMP DP  RH WIND       PRES   REMARKS
MANITOWISH WTR CLEAR     58  31  35 W6        30.05S
ARBOR VITAE    CLEAR     60  27  28 CALM      30.06S
WOODRUFF       CLEAR     60  27  28 CALM      30.06S
RHINELANDER    CLEAR     59  30  33 SW8       30.08S
EAGLE RIVER    CLEAR     55  26  32 SW6       30.05S
LAND O LAKES   CLEAR     60  27  28 W7        30.06S
PHILLIPS       CLEAR     60  33  36 SW7       30.06F
TOMAHAWK       CLEAR     58  29  33 CALM      30.09S
MEDFORD        CLEAR     56  35  44 SW5       30.10S
MERRILL        CLEAR     57  33  40 SW7       30.10S
$$

WIZ029-030-035-036-043>047-230200-
CENTRAL WISCONSIN

CITY           SKY/WX    TMP DP  RH WIND       PRES   REMARKS
WAUSAU         CLEAR     57  30  35 SW7       30.09F
MOSINEE        PTCLDY    57  30  35 W5        30.12S
MARSHFIELD     CLEAR     58  30  34 W6        30.11S
STEVENS POINT  CLEAR     54  30  40 CALM      30.12S
WAUPACA        CLEAR     61  23  23 CALM      30.12F
WAUTOMA        CLEAR     55  30  38 CALM      30.13S
WISC RAPIDS    CLEAR     54  32  43 SW3       30.12F
CAMP DOUGLAS   CLEAR     54  31  40 W5        30.13R
$$

WIZ011>013-019>022-031-037>040-048>050-230200-
NORTHEAST WISCONSIN

CITY           SKY/WX    TMP DP  RH WIND       PRES   REMARKS
ANTIGO         CLEAR     53  34  49 SW8       30.10S
SHAWANO        CLEAR     62  30  29 W6        30.10S
OCONTO         CLEAR     59  30  33 SW6       30.08S
STURGEON BAY   CLEAR     51  32  48 S10       30.10F
GREEN BAY      CLEAR     58  36  43 S8        30.11S
MANITOWOC      CLEAR     49  25  39 S8        30.14S
APPLETON       PTCLDY    54  28  37 S7        30.11S
CLINTONVILLE   CLEAR     59  28  31 W6        30.11S
OSHKOSH        CLEAR     55  34  45 SW5       30.12S
$$

WIZ032>034-041-042-053>061-230200-
SOUTHWEST WISCONSIN

CITY           SKY/WX    TMP DP  RH WIND       PRES   REMARKS
LA CROSSE      CLEAR     61  28  28 SW6       30.13S
SPARTA         CLEAR     60  27  28 CALM      30.14S
VIROQUA        CLEAR     60  20  21 CALM      30.15S
BOSCOBEL       CLEAR     60  26  27 CALM      30.15R
PRAIRIE DU CHI CLEAR     60  26  27 CALM      30.14F
PLATTEVILLE    CLEAR     59  27  29 CALM      30.16S
$$

WIZ056-057-062-063-064-067-068-230200-
SOUTH CENTRAL WISCONSIN

CITY           SKY/WX    TMP DP  RH WIND       PRES   REMARKS
REEDSBURG      CLEAR     59  27  28 CALM      30.13F
BARABOO/DELLS  CLEAR     58  21  23 CALM      30.14S
LONE ROCK      CLEAR     55  35  47 CALM      30.14S
MINERAL POINT  CLEAR     61  19  20 CALM      30.15S
MADISON        PTCLDY    56  30  37 CALM      30.14S
MIDDLETON      CLEAR     56  38  52 CALM      30.15S
WATERTOWN      CLEAR     57  31  36 CALM      30.14S
MONROE         CLEAR     55  27  33 CALM      30.15S
JANESVILLE     PTCLDY    57  28  33 VRB6      30.14S
$$

WIZ051-052-058>065-066-070>072-230200-
SOUTHEAST WISCONSIN

CITY           SKY/WX    TMP DP  RH WIND       PRES   REMARKS
MILWAUKEE      PTCLDY    53  18  25 CALM      30.15F
WAUKESHA       CLEAR     54  21  28 SE5       30.16S
MILWAUKEE/TIMM CLEAR     55   9  15 SE5       30.16F
RACINE         CLEAR     52  18  26 CALM      30.16F
KENOSHA        CLEAR     49  23  36 E3        30.15F
FOND DU LAC    CLEAR     57  34  41 SW5       30.13S
SHEBOYGAN      CLEAR     49  32  52 S5        30.15S
WEST BEND      CLEAR     52  25  35 CALM      30.15S
JUNEAU         CLEAR     55  35  46 CALM      30.15F
$$

LSZ147-162-230200-
LAKE SUPERIOR

STATION/POSITION TIME  TEMP    WIND        PRES    WAVE
                       AIR SEA DIR/SP/G            HT/PER
                 (UTC) (F)     (DEG/KT/KT) (MB)    (FT/S)
DEVILS ISLAND    0000   50     230/ 17/ 18 1016.3S
SAXON HARBOR     0030   67     270/  5/  8 1016.6S
$$

LMZ867-665-643>646-230200-
LAKE MICHIGAN

STATION/POSITION TIME  TEMP    WIND        PRES    WAVE
                       AIR SEA DIR/SP/G            HT/PER
                 (UTC) (F)     (DEG/KT/KT) (MB)    (FT/S)
CHAMBERS ISLAND  0040   53     160/  5/ 12 1017.9F
N MID LAKE BUOY  2350   42 37  180/ 12/ 14 1020.1F   1/ 3
NORTHPORT PIER   0040   50     160/  5/ 10 1018.3F
KEWAUNEE LAKESHO 0054   51     200/ 11/ 13 1019.5F
SHEBOYGAN LAKESH 0000   52     190/  9/  9 1021.0S
PORT WASHINGTON  0040   49     210/  2/  5 1021.7S
MILWAUKEE LAKESH 0100   50     230/  1/  2   N/A
KENOSHA   LAKESH 0000   49      20/  2/  3 1021.3
$$

TC  - TEMPERATURE IN CELSIUS
VSB - VISIBILITY IN STATUTE MILES
WCI - WIND CHILL INDEX
HX  - HEAT INDEX





USA.gov is the U.S. government's official web portal to all federal, state and local government web resources and services.